www.pogodaiklimat.ru

Погода и климат >> Архив погоды >> Кувейт >> Sabriyah


ПОГОДА в Sabriyah

  • Прогноз погоды в Sabriyah
  • Монитор погоды в Sabriyah
  • Климат города

АРХИВ ПОГОДЫ в Sabriyah

Время (UTC), дата Ветер
(напр.,м/с)
 
Видим.   Явления Облачность Т
(С)
Тd
(С)
f
(%)
Тe
(С)
Тes
(С)
Комфортность P
(гПа)
Po
(гПа)
Тmin
(С)
Tmax
(С)
R
(мм)
R24
(мм)
S
(см)
09 11.08 С 9-13
{14}
18 км н/о +44.9 +2.4 8 +42 +42 опасность
перегрева
1000.7 1001.0
12 11.08 СЗ 10-13
{16}
19 км н/о +46.2 +1.7 7 +43 +43 опасность
перегрева
998.5 999.0
15 11.08 С 9-11
{14}
19 км н/о +43.8 +2.8 8 +40 +40 очень
жарко
998.5 999.0
18 11.08 СЗ 7-9
{14}
11 км н/о +39.6 +3.6 11 +36 +36 очень
жарко
999.9 1000.0
21 11.08 С 3 14 км н/о +34.9 +3.5 14 +32 +32 жарко 1000.9 1001.0 +30.3 +46.9
00 12.08 СЗ 3-4
{9}
12 км н/о +31.7 +2.4 16 +29 +29 жарко 1000.1 1000.0
03 12.08 СЗ 5-6
{6}
20 км н/о +31.1 +3.0 17 +29 +29 жарко 1000.1 1000.0
06 12.08 СЗ 10-13
{13}
13 км н/о +41.3 +2.2 9 +38 +38 очень
жарко
1000.7 1001.0
09 12.08 С 11-16
{16}
14 км дым н/о +45.9 +1.2 7 +42 +42 опасность
перегрева
999.3 999.0
12 12.08 С 10-13
{17}
19 км н/о +46.8 +1.2 6 +43 +43 опасность
перегрева
997.1 997.0
15 12.08 СЗ 9-12
{16}
18 км н/о +44.3 +0.3 7 +41 +41 опасность
перегрева
996.2 996.0
18 12.08 СЗ 8-10
{16}
19 км н/о +39.9 +2.0 10 +36 +36 очень
жарко
997.5 998.0
21 12.08 СЗ 9 11 км н/о +36.5 +2.7 12 +33 +33 жарко 996.6 997.0 +30.6 +47.2
00 13.08 СЗ 9-11
{13}
19 км н/о +34.9 +3.9 14 +32 +32 жарко 996.1 996.0
03 13.08 СЗ 10-13
{13}
12 км н/о +34.2 +4.1 15 +31 +31 жарко 996.3 996.0
06 13.08 С 13-16
{16}
7000 м дым н/о +39.6 +3.4 11 +36 +36 очень
жарко
997.1 997.0
09 13.08 СЗ 14-17
{17}
4700 м дым н/о +44.5 -0.9 6 +41 +41 опасность
перегрева
995.4 995.0
12 13.08 С 14-17
{20}
4000 м дым н/о +45.1 -1.2 6 +41 +41 опасность
перегрева
994.2 994.0
15 13.08 СЗ 12-16
{19}
3600 м дым н/о +42.1 +2.8 9 +39 +39 очень
жарко
994.2 994.0
18 13.08 СЗ 10-13
{19}
2800 м дым н/о +38.6 +3.7 12 +36 +36 очень
жарко
995.4 995.0
21 13.08 С 5 5000 м дым н/о +34.6 +3.6 14 +32 +32 жарко 995.8 996.0 +33.8 +45.8
00 14.08 СЗ 6-7
{13}
19 км н/о +30.9 +3.2 17 +28 +28 жарко 995.8 996.0
03 14.08 СЗ 4-6
{7}
20 км н/о +30.0 +1.2 16 +27 +27 жарко 996.8 997.0
06 14.08 СЗ 10-12
{14}
16 км н/о +38.9 +1.7 10 +35 +35 очень
жарко
997.5 998.0
09 14.08 СЗ 9-14
{15}
11 км н/о +43.0 +1.8 8 +39 +39 очень
жарко
997.0 997.0
15 14.08 СЗ 10-13
{13}
3400 м дым н/о +41.9 +2.5 9 +38 +38 очень
жарко
996.1 996.0
18 14.08 СЗ 5-6
{13}
14 км н/о +37.2 +2.8 12 +34 +34 очень
жарко
998.2 998.0
21 14.08 З 4 17 км н/о +32.9 +0.6 13 +30 +30 жарко 998.2 998.0 +29.7 +45.0
00 15.08 З 2-3
{6}
19 км н/о +29.8 -0.1 14 +27 +27 жарко 998.4 998.0
03 15.08 З 2-3
{5}
19 км н/о +29.2 -0.6 14 +26 +26 жарко 999.6 1000.0
06 15.08 СЗ 6-8
{8}
19 км н/о +38.9 +0.6 9 +35 +35 очень
жарко
999.7 1000.0
09 15.08 С 5-9
{10}
19 км н/о +42.9 -0.4 7 +39 +39 очень
жарко
998.9 999.0
12 15.08 СЗ 5-9
{10}
20 км н/о +44.1 -1.3 6 +40 +40 очень
жарко
997.8 998.0
15 15.08 З 5-7
{10}
20 км н/о +42.6 -2.5 6 +39 +39 очень
жарко
997.7 998.0
18 15.08 З 4-4
{10}
20 км н/о +35.6 -4.2 8 +32 +32 жарко 999.1 999.0
21 15.08 З 3 19 км н/о +33.0 -5.0 8 +29 +29 жарко 999.2 999.0 +28.1 +44.6
00 16.08 СЗ 3-3
{5}
14 км н/о +30.4 -2.4 12 +27 +27 жарко 999.2 999.0
03 16.08 З 3-4
{4}
14 км н/о +29.6 +2.0 17 +27 +27 жарко 1000.2 1000.0
06 16.08 С 5-6
{7}
15 км н/о +39.3 +3.2 11 +36 +36 очень
жарко
1000.9 1001.0
09 16.08 СЗ 5-8
{8}
16 км н/о +44.1 +1.5 7 +40 +40 очень
жарко
1000.2 1000.0
12 16.08 СЗ 4-6
{9}
19 км н/о +45.5 -0.6 6 +42 +42 опасность
перегрева
998.3 998.0
15 16.08 З 5-6
{8}
20 км н/о +44.1 -2.9 5 +40 +40 очень
жарко
998.2 998.0
18 16.08 З 4-4
{8}
20 км н/о +36.6 -3.1 8 +33 +33 жарко 999.3 999.0
21 16.08 С 2 19 км н/о +34.5 -1.9 10 +31 +31 жарко 999.1 999.0 +28.9 +46.1
00 17.08 СЗ 4-4
{7}
18 км н/о +30.9 +0.8 14 +28 +28 жарко 999.2 999.0
03 17.08 СЗ 4-5
{5}
14 км н/о +30.6 +1.9 16 +28 +28 жарко 1000.5 1001.0
06 17.08 С 8-10
{11}
17 км н/о +39.7 +1.2 9 +36 +36 очень
жарко
1001.0 1001.0
09 17.08 С 8-12
{12}
18 км н/о +45.9 -0.1 6 +42 +42 опасность
перегрева
999.4 999.0
12 17.08 СЗ 8-11
{14}
19 км н/о +46.7 -2.3 5 +43 +43 опасность
перегрева
997.6 998.0
15 17.08 СЗ 7-9
{13}
20 км н/о +44.0 -5.1 5 +40 +40 очень
жарко
997.2 997.0
18 17.08 СЗ 5-5
{13}
12 км н/о +37.6 -2.4 8 +34 +34 очень
жарко
998.2 998.0
21 17.08 СЗ 8 19 км н/о +35.3 -0.3 10 +32 +32 жарко 996.8 997.0 +30.4 +47.1
00 18.08 СЗ 3-4
{10}
19 км н/о +31.0 +0.5 14 +28 +28 жарко 997.5 998.0
03 18.08 СЗ 4-5
{5}
18 км н/о +30.2 +1.3 16 +28 +28 жарко 998.5 999.0

 

Местоположение метеостанции Sabriyah (Кувейт): широта 29.75 долгота 47.85 высота над уровнем моря 56 м.

В архиве по умолчанию представлена погода в Sabriyah за последнюю неделю. Архивные данные за месяц целиком и за предыдущие месяцы, начиная с января 2011 года, Вы можете получить, выбрав интересующий диапазон дат из раскрывающегося списка и нажав кнопку "Ввод!".


*Определитесь, кто Вы:
робот инопланетянин человек

Внимание! Время в таблицах - всемирное. Для получения местного времени необходимо прибавить поправку, которая в Sabriyah равна 3 ч.

Смотрите также архив погоды в соседних городах и на ближайших метеорологических станциях:

Погода в Jal Aliyah (Кувейт) (30 км)
Погода в Abdaly (Кувейт) (39 км)
Погода в Mitribah (Кувейт) (47 км)
Погода в Kuwait City (Кувейт) (51 км)
Погода в Al-Shuaiba (Кувейт) (51 км)
Погода в Jahra (Кувейт) (51 км)
Погода в Bubiyan (Кувейт) (51 км)
Погода в Experimental Farm (Кувейт) (52 км)
Погода в Failaka Island (Кувейт) (52 км)
Погода в Sulaibiya (Кувейт) (55 км)

Пояснения к столбцам:

Ветер - указаны скорость ветра в м/с - средняя за 10 мин, порывы в срок и между сроками (в фигурных скобках) и направление, откуда дует ветер: С - северный, СВ - северо-восточный, В - восточный, ЮВ - юго-восточный, Ю - южный, ЮЗ - юго-западный, З - западный, СЗ - северо-западный.
Видимость - горизонтальная дальность видимости в метрах или километрах. При видимости от 1 до 10 км при отсутствии осадков обычно наблюдается дымка, при ухудшении видимости до 1 км и менее - туман. В сухую погоду видимость может ухудшаться дымом, пылью или мглою.
Явления - указаны атмосферные явления, наблюдавшиеся в срок или в последний час перед сроком; фигурными скобками обозначены явления, наблюдавшиеся между сроками (за 1-3 часа до срока); квадратными скобками обозначены град или гололедные отложения с указанием их диаметра в мм.
Облачность - указаны через наклонную черту общая и нижняя облачность в баллах и высота нижней границы облаков в метрах; квадратными скобками обозначены формы облаков: Ci - перистые, Cs - перисто-слоистые, Cc - перисто-кучевые, Ac - высококучевые, As - высокослоистые, Sc - слоисто-кучевые, Ns - слоисто-дождевые, Cu - кучевые, Cb - кучево-дождевые. Подробнее классификацию облаков см. в Атласе облаков (PDF).
T - Температура воздуха - температура, измеренная на высоте 2 м над землей.
Td - Температура точки росы - температура, при понижении до которой содержащийся в воздухе водяной пар достигнет насыщения.
f - Относительная влажность воздуха - влажноcть воздуха, измеренная на высоте 2 м над землей.
Te - Эффективная температура - температура, которую ощущает одетый по сезону человек в тени. Характеристика душности погоды. При расчете учитывается влияние влажности воздуха и скорости ветра на теплоощущения человека.
Tes - Эффективная температура на солнце - температура, которую ощущает человек, с поправкой на солнечный нагрев. Характеристика знойности погоды. Зависит от высоты солнца над горизонтом, облачности и скорости ветра. Ночью, в пасмурную погоду, а также при ветре 12 м/с и более поправка равна нулю.
P - Атмосферное давление - приведенное к уровню моря атмосферное давление.
Po - Атмосферное давление - измеренное на уровне метеостанции атмосферное давление.
Tmin - Минимальная температура - минимум температуры воздуха на высоте 2 м над землей.
Tmax - Максимальная температура - максимум температуры воздуха на высоте 2 м над землей.
R - Количество осадков - Количество выпавших осадков за период времени, мм. При наведении курсора мыши на число - период времени, за который выпало указанное количество осадков.
R24 - Количество осадков - Количество выпавших осадков за 24 часа, мм.
S - Снежный покров - Высота снежного покрова, см. При наведении курсора мыши на число - состояние снежного покрова и степень покрытия местности в баллах.